Home > Weather > Russia > Kemerovo > Past weeks

Flag for Russia Weather past 2 weeks in Kemerovo, Russia

28 °F

Low clouds.

Feels Like: 22 °F
Forecast: 13 / 29 °F
Wind: 6 mph from South

Location: Kemerovo

Current Time: Dec 1, 2015 at 6:42:46 PM

Latest Report: Dec 1, 2015 at 6:00 PM

Visibility: N/A

Pressure: 30.45 "Hg

Humidity: 93%

Dew point: 27 °F

Location of KemerovoLocation

Historic Weather in Kemerovo — Graph


Kemerovo temperature yesterday

Maximum temperature yesterday: 27 °F (at 2:00 PM)
Minimum temperature yesterday: 21 °F (at 3:00 AM)
Average temperature yesterday: 24 °F

Past Weeks' High & Low Weather Summary

High32 °F (Nov 25, 4:00 AM)100% (Nov 24, 7:00 PM)30.74 "Hg (Nov 24, 7:00 PM)
Low-15 °F (Nov 23, 7:30 AM)48% (Nov 20, 1:30 PM)29.50 "Hg (Nov 29, 10:00 AM)
Average11 °F81%30.29 "Hg
* Reported Nov 16 5:00 PM — Dec 1 5:30 PM, Kemerovo, Weather by CustomWeather, © 2015

Note: Actual official high and low records may vary slightly from our data, if they occured in-between our weather recording intervals... More about our weather records


Kemerovo weather history for previous 24 hours

Time TempWeatherWind HumidityBarometerVisibility
5:30 PM
Tue, Dec 1
28 °FLow clouds.8 mph93%30.45 "HgN/A
5:00 PM28 °FLow clouds.8 mph93%30.45 "HgN/A
4:30 PM28 °FLow clouds.8 mph93%30.45 "HgN/A
4:00 PM28 °FLow clouds.8 mph93%30.42 "HgN/A
3:00 PM28 °FLow clouds.6 mph86%30.42 "HgN/A
2:30 PM28 °FLow clouds.8 mph86%30.42 "HgN/A
2:00 PM28 °FLow clouds.8 mph93%30.42 "HgN/A
1:30 PM28 °FLow clouds.8 mph86%30.42 "HgN/A
1:00 PM28 °FLow clouds.8 mph86%30.42 "HgN/A
12:30 PM28 °FLow clouds.8 mph86%30.42 "HgN/A
12:00 PM28 °FLow clouds.8 mph93%30.42 "HgN/A
11:30 AM28 °FLow clouds.10 mph86%30.42 "HgN/A
11:00 AM28 °FLow clouds.10 mph86%30.42 "HgN/A
10:30 AM28 °FLow clouds.10 mph93%30.42 "HgN/A
10:00 AM28 °FLow clouds.15 mph86%30.42 "HgN/A
9:30 AM28 °FLight snow. Overcast.13 mph86%30.42 "HgN/A
9:00 AM28 °FOvercast.15 mph93%30.39 "HgN/A
8:30 AM28 °FLight snow. Overcast.17 mph93%30.39 "HgN/A
7:30 AM28 °FLight snow. Low clouds.15 mph93%30.39 "Hg6 mi
7:00 AM28 °FLight snow. Overcast.13 mph93%30.39 "Hg3 mi
6:30 AM28 °FLight snow. Low clouds.13 mph93%30.39 "Hg3 mi
6:00 AM30 °FLight snow. Low clouds.15 mph86%30.39 "HgN/A
5:30 AM28 °FLight snow. Low clouds.13 mph93%30.36 "HgN/A
5:00 AM28 °FLight snow. Overcast.13 mph93%30.36 "Hg2 mi
4:30 AM28 °FLight snow. Low clouds.13 mph93%30.36 "Hg2 mi
4:00 AM28 °FLight snow. Low clouds.13 mph93%30.36 "Hg4 mi
3:30 AM28 °FLight snow. Low clouds.13 mph93%30.36 "Hg5 mi
3:00 AM28 °FLight snow. Low clouds.13 mph93%30.36 "Hg3 mi
2:30 AM28 °FLight snow. Low clouds.13 mph93%30.36 "Hg1 mi
2:00 AM28 °FLight snow. Low clouds.13 mph93%30.36 "HgN/A
1:30 AM28 °FLight snow. Low clouds.13 mph86%30.36 "HgN/A
1:00 AM27 °FSnow flurries. Overcast.10 mph93%30.36 "HgN/A
12:30 AM27 °FOvercast.13 mph86%30.33 "HgN/A
12:00 AM27 °FLow clouds.8 mph86%30.33 "HgN/A
11:30 PM
Mon, Nov 30
25 °FOvercast.8 mph86%30.33 "HgN/A
11:00 PM25 °FOvercast.6 mph80%30.33 "HgN/A
10:30 PM25 °FOvercast.8 mph80%30.33 "HgN/A
10:00 PM25 °FOvercast.8 mph80%30.30 "HgN/A
9:30 PM23 °FOvercast.6 mph86%30.30 "HgN/A
9:00 PM25 °FOvercast.6 mph80%30.30 "HgN/A
8:30 PM25 °FOvercast.15 mph80%30.30 "HgN/A
8:00 PM25 °FOvercast.13 mph80%30.30 "HgN/A
7:30 PM25 °FOvercast.10 mph80%30.27 "HgN/A
7:00 PM25 °FOvercast.13 mph80%30.27 "HgN/A
6:30 PM25 °FSnow flurries. Overcast.8 mph80%30.27 "HgN/A
6:00 PM23 °FOvercast.6 mph86%30.24 "HgN/A
Weather by CustomWeather, © 2015

See weather overviewHow to use our weather pages